Temp
47 46 47 47 47 47 47 48 48 47 47 47 47 47 47 48 48 43 39 42 36 30 31 35 37 32 31 32 26 30 31 30 29 26 27 26 24 28 27 30 28 27 25 25 28 25 22 40 40 34 36 34 35 35
47 47 47 47 47 47 47 47 46 47 47 46 47 47 47 47 47 46 37 43 42 33 32 39 41 44 41 39 34 34 33 34 33 28 25 26 25 24 27 22 31 25 29 27 29 28 36 38 37 37 39 34 34 32
46 46 46 46 46 46 46 46 46 46 45 45 45 45 45 46 45 45 39 40 38 34 33 33 32 38 43 42 44 31 33 39 35 36 29 30 22 28 26 25 30 32 36 31 32 34 33 36 37 38 38 35 35 35
46 46 46 46 46 46 45 44 44 43 43 45 46 47 47 47 47 45 39 42 39 35 27 29 41 38 43 45 42 41 41 41 40 39 32 29 26 32 28 32 29 31 33 31 30 33 35 36 36 36 35 36 35 35
46 46 46 46 45 44 42 42 43 45 46 46 46 47 47 47 47 44 42 42 43 36 27 27 35 39 43 42 41 42 40 39 35 32 32 32 33 33 32 31 29 36 33 29 26 35 35 34 36 37 34 33 34 31
45 45 46 45 43 41 44 44 44 45 45 45 46 46 47 47 47 37 31 40 44 43 33 28 34 35 38 40 39 38 39 38 36 32 33 35 39 34 29 25 34 37 37 37 33 39 37 37 38 37 32 32 32 30
45 45 45 42 42 44 44 43 44 45 45 46 46 46 46 47 43 36 34 37 44 43 32 29 30 37 39 38 37 37 39 37 35 31 33 34 34 36 30 28 36 38 37 39 39 37 33 33 30 34 32 32 31 29
45 44 42 43 44 44 44 44 44 44 46 46 46 47 47 47 45 39 41 45 44 37 35 28 28 32 40 33 30 37 34 36 35 30 34 32 35 33 26 34 36 36 36 37 38 39 36 32 31 30 31 30 26 25
43 41 43 44 44 44 44 45 45 45 45 45 45 47 43 37 34 38 46 46 44 38 30 28 26 23 37 34 34 34 34 30 34 30 32 33 29 28 32 34 35 35 36 33 34 33 33 31 29 29 29 28 26 25
42 43 44 44 44 44 45 46 46 45 45 46 43 36 32 39 46 45 40 34 33 34 34 23 30 28 34 32 30 29 32 26 23 27 34 29 27 34 37 37 38 37 36 34 29 28 28 28 28 28 27 27 26 24
44 45 45 46 46 46 46 47 47 47 46 38 34 32 41 47 40 35 31 30 31 29 32 29 30 30 36 27 28 29 27 27 23 27 27 27 26 31 35 35 37 38 38 38 39 35 35 32 29 27 26 26 25 24
45 46 46 46 46 46 47 47 47 43 39 40 40 41 40 36 29 27 27 30 28 27 30 30 31 32 33 37 31 30 29 27 25 31 26 24 26 32 32 33 34 35 36 35 36 33 32 31 29 27 25 23 21 19
46 46 46 46 46 46 47 47 48 47 46 42 38 32 30 26 19 21 20 25 26 30 32 32 29 32 32 34 29 28 25 25 31 22 24 25 29 31 31 31 30 32 32 31 29 30 28 26 26 23 17 15 16 13
45 45 46 46 45 46 47 47 47 46 41 33 30 23 22 21 27 27 28 29 29 31 32 31 27 31 30 28 28 25 25 26 18 18 20 25 29 29 30 30 29 27 27 27 25 25 21 19 16 16 16 15 14 12
45 45 45 44 45 46 46 46 46 41 35 30 30 24 25 29 30 30 28 30 33 33 34 33 31 32 28 26 27 25 19 17 20 19 23 27 28 28 27 27 24 22 20 19 19 18 16 16 15 11 11 14 12 9
45 45 41 44 45 46 46 43 40 38 34 31 29 28 30 29 29 30 32 31 32 31 31 32 30 27 25 26 26 21 21 16 19 21 23 27 27 27 24 23 21 20 19 18 16 16 14 14 13 10 8 8 7 8
44 37 44 44 45 45 45 37 35 32 30 29 27 28 27 28 26 28 30 29 30 31 25 27 24 26 27 24 25 27 21 24 28 27 26 28 25 21 20 18 17 18 16 15 15 13 9 10 11 11 7 -2 5 3
36 38 43 45 43 40 35 36 32 31 27 27 26 26 27 26 26 26 28 29 31 30 31 29 30 27 22 21 19 25 25 24 24 24 22 21 21 20 22 19 17 17 15 14 14 12 12 13 12 11 8 5 5 2
39 40 44 45 42 34 30 31 33 26 26 27 27 27 26 26 27 28 28 29 30 30 30 28 24 23 24 27 26 26 26 25 18 21 21 21 22 20 18 17 16 15 14 13 15 14 14 14 14 13 11 12 10 8
44 44 43 44 43 34 32 30 34 29 24 25 26 25 23 23 23 22 28 29 29 28 24 23 23 25 25 28 29 27 26 24 22 19 18 17 18 18 18 18 16 15 15 14 14 13 13 12 13 13 13 12 10 7
40 39 41 39 35 33 30 29 27 27 26 24 25 26 20 24 22 22 24 28 26 26 24 25 25 28 29 30 30 30 29 28 23 22 19 16 16 17 16 16 17 17 16 14 13 10 11 12 11 13 9 3 3 8
35 41 34 36 32 32 29 29 28 27 25 24 24 26 18 16 16 20 26 23 24 25 26 26 26 27 28 28 28 28 28 27 26 23 21 20 16 15 14 15 16 12 14 12 14 13 11 12 13 12 8 2 6 6
38 36 31 31 27 25 23 29 26 27 20 20 24 21 18 16 20 28 21 25 24 27 27 27 27 28 27 28 28 28 28 27 24 21 18 17 17 17 16 14 15 14 12 11 14 13 13 12 10 10 7 4 3 -1
37 28 23 22 25 16 24 21 29 26 23 22 20 16 19 19 24 21 19 22 25 27 26 26 27 26 27 28 27 26 26 26 22 20 19 20 17 14 17 17 16 16 17 16 17 14 12 11 9 10 7 2 5 6
23 21 19 12 20 17 12 11 15 20 13 16 14 12 14 21 14 14 17 17 19 21 21 25 26 27 24 23 25 26 26 27 26 24 24 25 22 19 17 16 16 17 18 15 11 10 6 8 9 9 8 6 11 8
12 18 18 18 13 15 14 10 9 11 10 9 14 15 15 10 8 12 15 13 13 16 21 22 23 24 24 25 23 24 25 27 28 25 25 26 24 21 17 16 13 14 18 17 13 11 9 10 11 10 10 9 9 12
10 14 25 28 25 24 14 14 20 13 8 8 10 8 6 -0 0 10 17 16 15 17 21 24 24 24 23 21 22 23 23 25 25 25 25 25 25 25 21 18 17 18 19 19 17 15 14 13 12 12 11 4 12 14
25 22 10 18 15 17 12 7 12 12 13 18 15 3 -2 1 4 7 12 15 16 19 21 21 20 20 20 19 19 18 19 20 21 22 23 22 17 16 20 20 18 22 22 22 20 19 18 17 16 14 14 14 13 14
21 19 19 12 10 9 12 7 11 18 20 13 2 -1 2 7 5 7 10 14 16 16 14 13 14 15 15 13 13 15 16 18 18 15 13 14 15 20 17 18 17 17 19 20 22 22 21 21 19 18 17 17 16 14
15 21 10 3 3 6 8 12 16 16 15 11 12 11 8 4 8 12 10 10 8 8 7 7 8 9 7 5 7 14 19 19 19 16 13 15 19 23 23 22 22 21 22 22 22 23 23 20 18 16 15 14 12 10
20 18 12 9 6 7 9 12 9 12 8 8 3 1 0 4 5 7 9 7 7 6 7 7 7 10 10 9 7 9 14 18 20 21 21 21 22 24 23 23 24 24 24 23 21 19 18 17 17 16 15 14 12 11
16 12 13 10 10 13 16 16 12 11 9 7 4 2 2 -3 -4 2 7 5 4 5 6 5 6 9 11 12 13 14 16 17 17 19 21 20 21 22 21 21 22 23 23 23 22 20 20 18 17 16 14 13 12 12
14 10 8 13 15 15 17 16 13 9 8 7 5 4 4 3 -0 2 5 1 2 5 5 7 8 9 10 12 12 14 14 15 18 22 22 23 22 22 21 21 20 20 19 18 18 19 18 17 16 14 13 11 10 8
MSLP
1005.77 1006.05 1006.27 1006.50 1006.71 1006.94 1007.20 1007.45 1007.68 1007.97 1008.22 1008.51 1008.83 1009.20 1009.69 1010.33 1011.04 1011.82 1012.38 1013.41 1013.87 1014.02 1014.09 1013.80 1014.02 1014.25 1014.47 1014.99 1015.48 1015.39 1015.74 1015.74 1015.97 1016.04 1015.14 1014.47 1014.42 1013.89 1013.60 1013.34 1013.33 1013.38 1013.59 1013.52 1013.56 1013.14 1011.90 1010.41 1010.48 1010.80 1010.88 1011.77 1012.28 1013.14
1005.39 1005.59 1005.80 1005.99 1006.15 1006.31 1006.43 1006.57 1006.67 1006.80 1006.98 1007.23 1007.53 1007.93 1008.44 1009.07 1009.94 1010.95 1011.61 1012.23 1013.23 1013.60 1013.04 1012.84 1012.53 1012.78 1013.03 1013.36 1014.21 1014.44 1014.03 1014.04 1014.59 1014.28 1013.84 1013.58 1014.20 1013.98 1013.56 1013.28 1012.78 1012.86 1012.10 1012.39 1012.48 1011.82 1011.14 1010.85 1010.91 1010.82 1011.18 1012.10 1013.51 1014.04
1004.99 1005.14 1005.28 1005.35 1005.41 1005.45 1005.48 1005.52 1005.49 1005.61 1005.76 1005.89 1005.94 1006.08 1006.44 1007.00 1008.12 1009.13 1010.05 1011.30 1012.50 1012.81 1012.65 1012.80 1011.90 1011.99 1012.31 1012.29 1012.33 1013.30 1013.26 1013.43 1013.48 1013.83 1013.62 1013.18 1013.20 1013.07 1012.98 1012.94 1012.68 1012.11 1011.66 1011.77 1012.17 1011.91 1011.78 1011.66 1011.89 1012.02 1012.47 1012.93 1014.26 1015.19
1004.45 1004.55 1004.59 1004.59 1004.52 1004.48 1004.47 1004.48 1004.42 1004.19 1003.86 1003.50 1003.41 1003.56 1003.88 1004.49 1004.83 1007.04 1008.10 1009.59 1010.98 1011.73 1011.83 1010.71 1010.44 1011.03 1010.96 1011.54 1011.84 1012.21 1012.71 1012.92 1013.21 1013.69 1013.44 1013.09 1013.07 1012.45 1012.41 1012.03 1012.29 1011.91 1011.68 1011.65 1012.15 1012.32 1012.28 1012.59 1013.07 1013.22 1013.68 1014.65 1015.53 1016.39
1003.90 1003.95 1003.91 1003.79 1003.71 1003.73 1003.61 1003.08 1002.50 1002.10 1002.03 1002.07 1002.15 1002.40 1002.92 1003.57 1004.01 1005.61 1007.18 1008.19 1009.30 1009.90 1009.95 1010.12 1009.84 1009.30 1009.63 1010.46 1011.15 1011.72 1012.26 1012.72 1013.02 1013.76 1012.96 1012.75 1012.42 1012.32 1012.25 1012.18 1011.38 1010.78 1010.81 1011.11 1010.74 1011.02 1011.71 1013.06 1013.62 1014.36 1014.44 1015.71 1016.64 1017.20
1003.38 1003.33 1003.18 1003.09 1003.21 1002.73 1001.76 1001.50 1001.29 1000.93 1000.58 1000.42 1000.34 1000.76 1001.27 1002.49 1003.69 1005.17 1006.67 1007.87 1008.00 1008.93 1009.60 1009.36 1008.92 1008.63 1008.85 1009.65 1010.36 1011.04 1011.52 1012.26 1012.63 1012.90 1012.79 1011.89 1011.56 1011.91 1011.97 1011.27 1009.85 1009.48 1009.45 1009.59 1010.21 1010.96 1011.84 1013.25 1014.49 1014.99 1015.74 1016.89 1017.66 1018.41
1002.89 1002.72 1002.62 1002.71 1002.14 1001.43 1001.28 1000.95 1000.24 999.80 999.30 998.69 998.60 998.61 999.84 1001.22 1002.74 1003.89 1004.09 1004.60 1007.03 1009.14 1009.81 1010.23 1009.06 1008.42 1008.59 1009.55 1010.47 1010.90 1011.19 1011.60 1012.04 1012.41 1012.22 1012.07 1011.92 1011.69 1011.36 1010.37 1009.59 1009.42 1009.36 1009.77 1010.07 1011.54 1013.44 1014.16 1015.10 1016.00 1016.71 1017.76 1018.72 1019.95
1002.35 1002.26 1002.25 1001.63 1001.29 1001.17 1000.70 999.80 999.67 999.36 998.30 998.22 997.69 997.30 997.87 1000.62 1002.72 1003.68 1003.46 1003.88 1006.07 1008.12 1009.25 1008.53 1008.48 1008.38 1008.43 1009.11 1009.97 1010.32 1010.47 1011.01 1011.36 1011.35 1011.56 1011.62 1011.67 1011.48 1010.41 1009.23 1009.45 1009.66 1009.98 1010.62 1010.65 1011.00 1012.57 1014.44 1015.81 1016.95 1017.82 1018.61 1019.81 1021.10
1001.95 1001.93 1001.27 1001.06 1001.10 1000.88 1000.29 999.84 999.50 999.11 998.76 998.57 998.59 998.61 999.64 1001.31 1002.39 1003.05 1003.96 1005.23 1006.22 1007.31 1006.95 1007.15 1007.62 1008.21 1008.22 1008.73 1009.38 1009.93 1010.25 1010.95 1011.06 1010.65 1010.71 1011.15 1010.72 1009.90 1008.83 1008.78 1009.03 1009.39 1009.80 1010.90 1011.98 1012.44 1013.84 1014.90 1016.36 1017.55 1018.39 1019.44 1020.25 1021.61
1001.44 1000.92 1000.84 1001.02 1001.05 1000.41 999.76 999.16 998.99 999.01 998.69 998.39 998.85 999.68 1000.46 1000.91 1001.91 1003.62 1005.30 1005.73 1006.23 1006.56 1006.77 1006.86 1006.95 1007.31 1007.66 1008.31 1009.17 1009.81 1009.97 1010.27 1010.61 1010.21 1010.28 1010.20 1009.33 1008.65 1008.40 1008.50 1009.04 1009.67 1010.18 1011.11 1012.11 1013.80 1014.74 1015.76 1016.70 1017.86 1018.79 1019.82 1020.78 1021.85
1000.60 1000.74 1000.91 1000.83 1000.66 1000.07 999.42 999.04 998.87 998.51 998.48 998.69 999.58 1000.26 1001.10 1001.45 1002.37 1003.69 1004.40 1005.18 1005.61 1006.09 1006.11 1006.34 1006.49 1006.79 1007.55 1007.84 1008.49 1008.97 1009.50 1009.74 1009.83 1009.72 1009.89 1009.78 1008.95 1008.88 1008.87 1009.07 1009.57 1010.26 1010.68 1011.38 1011.27 1012.86 1013.73 1014.48 1016.41 1018.03 1019.53 1020.66 1021.59 1022.59
1000.72 1000.87 1000.81 1000.76 1000.51 1000.11 999.55 999.13 999.04 998.94 999.06 999.49 1000.04 1001.23 1001.57 1002.23 1002.99 1003.71 1004.22 1004.80 1004.75 1005.32 1005.60 1005.75 1006.17 1006.69 1007.37 1007.57 1008.14 1008.94 1008.97 1009.36 1009.20 1009.44 1009.79 1009.43 1008.93 1009.07 1009.58 1010.08 1010.57 1011.06 1011.53 1012.02 1012.62 1013.57 1014.95 1016.15 1017.38 1018.63 1020.10 1021.39 1022.49 1023.43
1000.83 1000.96 1000.85 1000.69 1000.32 1000.14 999.60 999.22 999.25 999.35 999.38 999.54 1000.14 1001.10 1001.92 1002.61 1003.10 1003.40 1003.84 1004.22 1004.47 1004.77 1005.05 1005.34 1006.11 1006.62 1007.34 1007.48 1008.08 1008.41 1008.83 1009.07 1008.95 1009.56 1009.47 1008.84 1008.98 1009.50 1010.30 1010.95 1011.71 1012.08 1012.60 1013.37 1014.33 1015.29 1016.27 1017.52 1018.72 1019.66 1021.22 1022.38 1023.32 1024.34
1000.93 1000.95 1000.88 1000.68 1000.19 999.90 999.61 999.40 999.44 999.65 999.96 1000.83 1001.44 1002.14 1002.55 1002.87 1002.93 1002.91 1002.96 1003.03 1003.51 1003.97 1004.59 1005.21 1005.94 1006.39 1006.94 1007.36 1007.77 1008.42 1008.93 1008.97 1009.67 1009.81 1009.05 1008.62 1009.14 1009.98 1010.84 1011.70 1012.35 1013.40 1014.07 1014.81 1015.75 1016.64 1017.68 1018.83 1020.18 1021.18 1022.00 1022.95 1023.85 1025.09
1000.99 1001.00 1000.88 1000.75 1000.39 999.73 999.52 999.28 999.51 999.88 1000.89 1001.88 1002.20 1002.96 1002.92 1003.01 1003.01 1003.05 1003.10 1003.30 1003.67 1004.01 1004.45 1005.27 1006.07 1006.34 1006.88 1007.35 1007.79 1008.43 1009.22 1009.29 1009.04 1008.72 1008.63 1008.72 1009.64 1010.55 1011.58 1012.52 1013.41 1014.33 1015.24 1016.20 1017.05 1017.94 1019.05 1020.05 1021.09 1022.34 1023.22 1023.84 1024.75 1025.76
1001.06 1000.82 1000.77 1000.47 1000.13 999.90 999.62 999.68 999.97 1000.65 1002.02 1002.74 1003.49 1003.62 1003.63 1003.54 1003.82 1003.73 1003.87 1004.11 1004.15 1004.38 1004.61 1005.02 1006.08 1006.74 1007.02 1007.23 1007.76 1008.19 1008.74 1008.98 1008.97 1009.02 1009.25 1009.69 1010.58 1011.48 1012.38 1013.42 1014.48 1015.31 1016.17 1017.19 1018.13 1019.05 1020.00 1020.97 1021.93 1023.07 1024.03 1024.69 1025.42 1026.16
1001.18 1001.15 1000.76 1000.53 1000.32 1000.16 999.97 1000.44 1001.31 1002.55 1003.39 1003.97 1004.70 1004.78 1004.71 1004.95 1005.14 1005.14 1005.05 1005.02 1004.88 1004.89 1005.27 1005.49 1006.11 1006.78 1007.14 1007.65 1008.23 1008.54 1009.11 1009.46 1009.47 1009.85 1010.23 1010.62 1011.42 1012.56 1013.51 1014.53 1015.58 1016.36 1017.29 1018.21 1019.06 1019.99 1020.88 1021.94 1022.64 1023.58 1024.92 1026.01 1026.05 1026.58
1001.51 1001.35 1000.81 1000.31 1000.24 1000.40 1001.06 1001.65 1002.81 1003.92 1005.03 1005.62 1005.75 1005.94 1005.90 1006.02 1006.08 1006.06 1006.08 1005.76 1005.49 1005.44 1005.58 1006.16 1006.56 1007.45 1008.05 1008.46 1008.88 1009.26 1009.76 1010.41 1010.73 1011.15 1011.68 1012.21 1012.87 1013.80 1014.46 1015.35 1016.43 1017.19 1018.09 1018.99 1019.78 1020.68 1021.55 1022.22 1022.91 1023.95 1024.96 1025.94 1026.69 1027.27
1001.62 1001.44 1000.83 1000.35 1000.26 1001.05 1002.44 1003.40 1003.70 1005.27 1006.27 1006.47 1006.67 1006.71 1006.70 1006.87 1006.92 1006.86 1006.54 1006.19 1005.96 1005.98 1006.51 1007.47 1008.41 1008.98 1009.29 1009.33 1009.49 1009.81 1010.28 1010.86 1011.68 1012.35 1012.99 1013.54 1014.00 1014.67 1015.53 1016.43 1017.24 1018.11 1018.86 1019.63 1020.38 1021.09 1021.82 1022.29 1022.86 1023.86 1024.90 1025.70 1026.40 1027.14
1001.34 1001.11 1000.89 1000.71 1000.42 1001.78 1003.55 1004.65 1004.82 1005.91 1006.83 1007.29 1007.28 1007.52 1007.60 1007.94 1007.90 1007.63 1007.07 1006.85 1006.84 1007.38 1008.66 1009.70 1010.51 1010.69 1010.57 1010.41 1010.32 1010.49 1010.88 1011.45 1012.01 1013.05 1014.10 1014.92 1015.42 1015.80 1016.41 1016.97 1017.84 1018.69 1019.52 1020.35 1020.97 1021.54 1022.35 1022.99 1023.50 1024.12 1024.85 1025.48 1026.21 1026.89
1001.48 1001.59 1001.40 1001.13 1002.11 1003.07 1004.77 1005.71 1006.27 1006.88 1007.16 1007.70 1007.99 1008.16 1008.90 1008.61 1008.83 1008.82 1008.57 1008.20 1008.52 1010.22 1011.23 1011.81 1011.77 1011.58 1011.34 1011.19 1011.13 1011.23 1011.50 1011.86 1012.35 1012.97 1014.29 1015.68 1016.41 1016.78 1017.39 1018.04 1018.58 1019.18 1019.77 1020.58 1021.28 1022.02 1022.42 1022.91 1023.49 1024.12 1024.81 1025.49 1025.99 1026.47
1002.29 1002.00 1002.23 1002.33 1003.40 1004.48 1005.72 1006.54 1006.88 1007.35 1007.74 1008.38 1008.57 1009.03 1009.71 1010.19 1010.05 1010.03 1009.80 1010.21 1011.62 1012.45 1012.51 1012.62 1012.56 1012.34 1011.99 1011.89 1011.95 1012.06 1012.32 1012.62 1013.17 1013.84 1014.57 1015.39 1016.47 1017.30 1018.05 1018.47 1018.95 1019.60 1020.06 1020.58 1021.12 1021.78 1022.35 1022.81 1023.33 1023.98 1024.73 1025.45 1026.00 1026.40
1002.60 1002.64 1003.38 1003.99 1004.98 1006.06 1007.54 1007.19 1007.55 1008.17 1008.75 1009.41 1009.47 1010.20 1010.76 1010.87 1010.62 1010.29 1011.52 1012.47 1013.33 1013.56 1013.39 1013.31 1013.19 1013.03 1012.88 1012.79 1012.71 1012.86 1013.07 1013.36 1014.01 1014.70 1015.27 1015.77 1016.40 1017.02 1017.76 1018.48 1018.91 1019.38 1020.10 1020.79 1021.10 1021.72 1022.20 1022.59 1023.18 1023.80 1024.52 1025.32 1025.86 1026.32
1003.32 1004.46 1005.54 1006.47 1006.92 1008.42 1008.23 1008.47 1008.64 1009.24 1009.66 1010.31 1010.96 1011.65 1011.76 1011.57 1011.14 1011.72 1013.06 1013.94 1014.36 1014.26 1014.06 1014.00 1013.76 1013.58 1013.45 1013.41 1013.59 1013.70 1013.79 1013.93 1014.46 1015.13 1015.61 1016.13 1016.88 1017.51 1017.82 1018.23 1018.70 1019.03 1019.41 1020.08 1020.78 1021.38 1021.93 1022.46 1023.03 1023.71 1024.29 1024.93 1025.51 1025.96
1005.13 1007.49 1008.05 1008.50 1008.67 1009.20 1009.83 1010.08 1010.32 1010.46 1011.47 1011.68 1012.29 1012.64 1012.66 1012.28 1012.95 1013.83 1014.68 1015.48 1015.63 1015.48 1015.20 1014.77 1014.48 1014.42 1014.36 1014.35 1014.34 1014.28 1014.24 1014.36 1014.68 1015.16 1015.62 1015.86 1016.52 1017.45 1018.07 1018.42 1018.63 1018.85 1019.17 1019.84 1020.59 1021.12 1021.68 1022.15 1022.70 1023.29 1023.86 1024.36 1024.86 1025.39
1008.13 1009.14 1009.19 1009.67 1009.81 1010.08 1010.82 1011.44 1011.60 1011.86 1012.00 1012.87 1013.23 1013.36 1013.48 1014.26 1015.31 1016.24 1016.62 1016.89 1016.79 1016.53 1016.25 1015.90 1015.48 1015.17 1015.10 1015.01 1014.97 1014.89 1014.81 1014.67 1014.80 1015.14 1015.49 1015.69 1015.98 1016.46 1017.35 1018.00 1018.59 1018.80 1018.80 1018.97 1019.66 1020.45 1021.08 1021.51 1022.06 1022.65 1023.18 1023.55 1023.91 1024.48
1009.67 1009.87 1009.61 1009.72 1010.00 1010.43 1011.32 1011.65 1011.92 1012.25 1013.12 1013.60 1014.00 1014.58 1015.51 1017.05 1017.97 1018.15 1017.88 1018.06 1017.85 1017.55 1017.16 1016.59 1016.27 1016.13 1016.19 1016.10 1015.77 1015.54 1015.21 1015.07 1015.12 1015.18 1015.12 1015.30 1015.59 1015.90 1016.33 1016.82 1017.33 1017.32 1017.58 1018.25 1018.84 1019.25 1019.99 1020.67 1021.28 1021.82 1022.28 1022.77 1023.17 1023.61
1010.11 1010.51 1010.79 1011.28 1011.41 1011.87 1012.47 1012.75 1012.96 1013.31 1013.49 1013.72 1014.63 1016.69 1017.95 1018.92 1019.79 1019.80 1019.38 1019.09 1018.67 1018.10 1017.78 1017.61 1017.45 1017.30 1017.16 1017.08 1016.79 1016.21 1015.83 1015.76 1015.51 1015.40 1015.39 1015.62 1015.80 1015.84 1015.99 1016.23 1016.37 1016.54 1017.00 1017.41 1017.89 1018.50 1019.08 1019.63 1020.31 1020.95 1021.53 1021.98 1022.49 1023.04
1011.14 1011.34 1011.58 1012.67 1012.90 1013.38 1013.96 1014.07 1014.09 1013.95 1014.09 1014.74 1016.43 1018.37 1019.69 1020.56 1021.11 1020.87 1020.42 1020.01 1019.39 1018.98 1018.85 1018.79 1018.61 1018.25 1017.88 1017.78 1017.48 1017.16 1016.77 1016.45 1016.40 1016.46 1016.43 1016.52 1016.60 1016.25 1016.12 1016.16 1016.35 1016.61 1016.92 1017.35 1017.74 1018.08 1018.51 1019.01 1019.54 1020.04 1020.62 1021.24 1021.78 1022.55
1012.17 1012.03 1012.71 1013.67 1014.56 1014.90 1014.88 1014.59 1014.58 1014.85 1015.42 1016.22 1017.27 1019.08 1020.44 1021.49 1021.87 1021.61 1021.25 1020.93 1020.70 1020.59 1020.53 1020.30 1019.98 1019.55 1019.50 1019.21 1018.89 1018.18 1017.66 1017.37 1017.19 1017.16 1017.08 1016.83 1016.58 1016.25 1016.17 1016.27 1016.47 1016.71 1016.97 1017.29 1017.70 1018.15 1018.63 1019.17 1019.71 1020.30 1020.92 1021.54 1022.10 1022.72
1012.66 1012.77 1013.52 1014.22 1014.89 1014.93 1014.85 1014.90 1014.94 1015.36 1016.21 1017.24 1017.98 1019.20 1020.74 1021.80 1022.19 1022.31 1022.16 1022.07 1021.85 1021.46 1021.15 1021.04 1020.74 1020.46 1020.18 1019.99 1019.76 1019.30 1018.59 1017.85 1017.64 1017.32 1017.04 1016.71 1016.42 1016.34 1016.32 1016.39 1016.48 1016.65 1016.90 1017.21 1017.63 1018.14 1018.68 1019.22 1019.67 1020.25 1020.85 1021.48 1022.11 1022.66
1013.36 1013.74 1014.13 1014.67 1014.88 1014.55 1014.42 1014.69 1015.12 1015.87 1016.99 1017.97 1019.23 1020.01 1021.11 1021.98 1022.90 1023.02 1022.97 1022.73 1022.49 1022.31 1022.17 1021.97 1021.60 1021.16 1020.87 1020.53 1020.10 1019.69 1019.30 1018.79 1018.20 1017.70 1017.27 1016.92 1016.67 1016.67 1016.75 1016.82 1016.86 1016.93 1017.11 1017.40 1017.79 1018.28 1018.78 1019.22 1019.77 1020.31 1020.91 1021.62 1022.33 1022.95
1014.10 1014.23 1014.49 1014.59 1014.67 1014.54 1014.63 1014.87 1015.63 1016.71 1017.55 1018.70 1019.63 1020.41 1021.34 1022.19 1023.24 1023.69 1023.33 1023.23 1023.38 1023.19 1022.80 1022.31 1021.86 1021.50 1021.15 1020.79 1020.41 1019.90 1019.40 1018.93 1018.47 1018.05 1017.70 1017.45 1017.32 1017.33 1017.39 1017.46 1017.53 1017.67 1017.87 1018.16 1018.44 1018.79 1019.25 1019.70 1020.24 1020.82 1021.46 1022.21 1023.00 1023.73
Wind_Speed
12 13 13 14 14 15 17 19 20 22 23 24 24 25 25 25 26 18 9 11 11 5 8 9 12 10 5 10 9 4 2 2 0 7 5 2 2 6 4 5 6 8 7 5 6 5 9 5 1 6 4 3 7 11
14 14 14 14 15 18 19 20 21 22 23 25 26 27 29 29 29 26 10 11 11 6 3 10 17 20 14 9 8 4 4 4 6 6 1 2 3 1 2 4 2 5 8 6 8 6 2 3 3 3 4 8 6 16
15 15 16 17 18 19 19 22 21 21 27 31 33 34 35 34 35 30 12 9 9 9 4 5 8 7 6 10 7 6 2 5 4 2 1 2 3 3 4 5 2 4 4 3 3 2 2 6 8 9 9 13 13 16
15 15 16 16 18 19 17 22 28 32 32 30 26 22 24 28 29 39 16 11 11 3 6 7 9 18 9 16 13 8 8 3 3 2 3 2 3 3 4 3 5 5 2 5 2 2 8 7 8 13 17 16 16 15
13 15 16 17 16 19 26 31 31 24 21 24 25 24 24 21 21 23 12 14 14 9 4 3 3 8 14 14 18 13 10 9 3 1 3 2 2 0 1 0 4 7 8 7 8 11 4 6 10 11 17 14 11 18
13 15 16 14 21 28 22 10 15 22 22 20 22 26 26 25 19 7 4 10 13 12 3 2 3 4 9 14 16 13 12 8 5 5 4 2 2 5 3 3 6 6 6 6 6 9 9 15 10 12 14 13 13 15
14 14 14 21 27 9 9 16 16 14 20 22 20 25 29 23 15 5 6 8 22 9 4 4 3 2 7 7 5 4 5 3 4 4 4 2 2 3 3 8 3 2 5 10 18 19 12 7 8 11 15 16 18 15
13 12 20 23 2 10 16 15 5 9 5 7 2 2 23 31 17 4 2 27 23 7 2 5 3 3 3 4 4 3 4 3 4 4 3 4 3 2 6 5 2 6 10 11 12 7 15 16 15 15 15 16 16 14
9 19 22 5 5 9 15 8 10 6 9 8 10 16 12 5 3 5 20 29 5 4 3 2 7 5 3 3 3 2 2 3 2 3 5 6 4 8 5 6 10 14 8 14 13 18 18 19 17 15 15 13 16 14
17 18 7 5 4 15 17 14 6 3 10 10 3 3 4 5 32 26 8 3 2 2 2 2 2 4 4 2 3 4 2 4 3 4 5 4 4 4 5 7 10 10 18 19 20 10 16 16 16 15 13 10 12 13
3 9 6 6 7 13 14 7 5 7 3 2 4 5 15 15 4 3 4 4 4 3 3 3 3 6 1 4 4 2 3 3 3 3 4 3 3 2 5 10 9 11 14 4 10 12 12 21 19 15 13 12 12 12
10 6 1 3 7 12 12 6 9 6 2 4 7 5 3 3 3 5 3 3 3 5 3 3 4 3 3 2 3 2 2 2 3 5 3 3 3 7 8 10 10 9 10 12 13 17 16 16 15 14 13 12 10 10
8 2 3 9 10 9 9 9 6 8 3 4 4 4 3 2 5 6 6 3 5 5 4 4 5 3 2 2 2 2 3 4 4 1 4 4 5 9 10 10 10 10 13 15 15 14 16 15 12 14 12 8 11 10
5 2 3 8 15 11 7 7 7 6 4 3 2 4 3 2 2 1 2 5 2 6 9 5 3 3 2 3 2 4 2 3 2 4 6 3 9 10 10 9 14 12 12 14 14 14 14 13 11 9 10 10 12 12
6 1 2 7 13 10 7 10 8 3 4 3 3 3 3 1 0 1 1 5 6 5 5 5 4 3 2 3 1 3 2 3 5 5 3 5 11 11 11 10 12 12 11 11 11 12 12 12 12 10 7 9 10 10
1 5 3 14 15 12 5 7 5 3 4 3 5 2 3 5 6 6 8 8 2 3 3 3 4 2 1 3 3 3 5 5 4 2 1 8 11 10 10 10 8 9 11 11 9 10 11 11 12 11 8 8 8 10
3 2 10 14 11 5 10 5 4 6 4 5 4 3 2 3 3 3 3 3 2 3 2 3 4 2 3 2 2 1 1 1 1 2 2 6 10 10 10 10 9 10 11 10 11 9 7 9 12 11 11 2 6 5
2 5 13 10 2 4 3 5 4 5 6 3 3 3 3 2 1 2 2 2 1 2 2 3 3 4 3 1 2 0 2 3 4 4 4 7 10 9 9 12 9 10 10 9 9 9 9 11 10 7 9 7 7 4
3 4 10 7 4 5 4 5 4 5 3 1 1 1 1 1 1 2 2 2 2 2 4 4 5 3 2 2 1 1 1 2 2 3 5 6 8 10 11 10 10 9 10 9 10 7 6 6 7 8 7 8 7 5
7 11 16 11 5 4 6 4 3 4 3 2 2 4 2 1 3 3 6 6 4 4 6 6 4 3 3 3 2 2 4 5 7 6 5 5 5 8 8 8 7 9 8 8 7 7 6 5 4 6 7 6 8 6
7 6 9 6 5 6 5 2 4 2 1 3 3 3 2 3 4 5 4 4 6 5 4 3 2 3 4 3 3 3 4 3 3 3 4 4 3 5 5 6 7 6 6 6 6 4 5 5 5 6 6 4 4 4
3 8 3 4 5 4 5 4 3 0 3 1 3 3 3 3 3 3 2 7 5 3 3 2 3 4 5 5 4 4 4 7 7 6 9 11 5 4 4 4 6 4 5 5 6 7 5 5 6 6 5 4 4 4
5 4 4 5 7 7 2 2 5 4 4 3 3 4 4 3 1 1 5 3 3 3 2 3 3 3 3 4 4 6 5 6 5 4 4 4 4 5 6 4 4 6 5 2 4 5 6 6 6 6 5 4 4 3
5 6 6 4 5 1 2 4 3 3 3 3 3 3 3 2 3 4 4 3 2 3 3 4 3 3 2 4 4 3 3 4 5 4 3 5 4 1 3 5 4 3 3 5 6 5 5 5 6 6 5 5 5 5
9 8 6 6 4 6 5 4 4 4 3 1 3 3 3 2 4 4 3 2 3 5 5 4 4 4 3 1 1 2 2 2 4 4 3 3 4 4 2 2 1 2 5 6 4 5 4 5 5 6 6 5 9 7
7 4 4 1 3 4 2 3 1 3 3 4 1 2 3 4 5 3 2 2 2 2 4 5 4 3 3 3 2 2 2 1 3 2 2 5 5 5 6 5 3 3 5 5 6 6 7 7 8 8 7 8 8 8
5 4 2 2 0 2 4 2 2 4 4 3 2 2 4 5 2 0 2 3 3 3 4 4 4 4 4 4 3 3 3 2 2 1 1 3 4 4 5 6 7 5 7 8 8 8 10 9 8 8 6 3 7 8
3 4 3 4 4 2 4 3 3 2 1 2 4 5 5 5 3 2 2 4 6 5 3 4 5 4 3 3 4 4 3 3 3 3 3 3 3 1 3 2 2 7 6 8 9 7 8 9 9 9 8 8 6 6
2 3 1 5 4 5 3 2 2 1 2 3 5 3 2 3 2 2 3 6 5 4 6 5 6 5 4 4 4 4 4 4 4 5 3 3 3 3 1 2 2 2 3 4 7 7 9 8 9 9 9 7 5 6
4 2 4 3 4 2 3 0 2 2 4 3 5 4 3 3 3 3 4 5 6 4 3 2 3 4 4 4 5 5 4 4 4 3 1 3 3 2 1 3 3 3 4 5 5 6 9 8 9 5 6 4 4 5
2 2 4 3 1 3 3 2 2 4 3 4 3 5 4 4 1 3 6 4 3 3 4 5 4 5 5 6 4 4 5 4 7 7 4 3 2 1 1 1 2 3 4 6 7 7 7 5 5 7 7 7 7 6
4 2 3 2 1 3 2 1 2 3 2 3 2 3 2 4 3 3 4 4 4 5 5 4 4 4 5 4 3 3 5 5 5 5 6 3 2 3 3 2 3 3 4 5 5 6 7 7 7 7 7 8 8 7
2 3 2 2 2 0 0 3 3 3 3 3 2 3 2 3 3 1 3 2 0 3 4 5 4 4 4 5 4 5 6 4 7 7 7 7 7 6 4 3 4 5 6 6 5 6 6 8 7 8 9 10 10 10
Wind_Direction
232 226 233 240 243 247 247 247 246 245 245 241 237 234 226 220 219 216 218 192 203 219 223 210 206 199 171 201 216 226 138 194 221 253 193 203 191 214 189 193 183 178 168 190 196 211 263 188 255 186 192 18 108 107
233 236 246 252 255 256 256 256 250 247 247 246 244 239 234 233 227 214 220 191 193 216 239 216 220 220 209 178 192 232 222 172 175 263 186 128 169 154 130 240 158 216 187 183 190 212 335 337 303 40 121 119 114 112
242 247 253 255 258 260 257 259 258 260 267 261 252 245 239 231 226 214 200 176 179 224 219 256 220 227 210 206 183 187 239 214 259 241 240 223 187 140 168 223 233 263 182 197 103 14 47 53 56 78 90 102 109 114
245 252 262 266 268 266 272 278 276 266 261 255 244 238 225 222 226 197 195 182 188 179 227 259 200 221 194 213 223 212 216 208 117 359 259 212 221 181 201 160 172 203 158 143 88 146 86 67 105 113 103 99 104 100
252 262 267 273 276 294 282 274 266 256 251 253 246 242 227 224 209 186 188 184 191 179 184 203 178 210 203 200 209 208 209 210 177 258 221 233 224 191 229 41 235 169 212 182 215 173 129 140 126 124 112 115 115 115
262 269 275 286 293 283 276 301 293 278 265 260 240 241 215 204 192 107 120 201 190 204 305 -0 287 189 186 194 198 202 208 213 205 193 230 223 245 150 235 244 246 197 187 177 166 136 113 125 122 121 113 121 111 105
269 278 292 292 287 284 301 290 303 270 282 251 257 227 208 196 170 161 176 168 169 154 136 231 252 227 141 145 167 163 175 186 185 202 211 230 220 229 233 260 254 213 148 131 123 111 108 134 140 116 112 109 102 101
277 295 290 293 256 290 310 306 51 314 353 56 218 115 170 174 144 183 333 146 145 137 178 208 154 153 162 133 131 177 138 138 186 192 161 199 174 199 251 202 202 130 117 131 125 84 129 117 115 112 115 118 113 116
303 287 291 211 276 303 300 323 345 329 354 12 56 121 102 74 113 138 139 141 122 168 183 130 151 176 142 95 109 78 109 158 149 215 182 169 171 221 225 187 172 158 157 130 111 112 126 128 128 131 128 126 123 134
285 290 165 224 251 279 289 304 256 278 292 322 90 125 122 112 112 110 128 134 156 178 220 167 150 133 129 127 119 123 176 174 184 215 137 218 241 253 248 161 159 154 135 132 117 120 128 138 141 141 136 130 132 135
221 144 193 245 234 290 331 335 333 260 268 68 45 45 112 101 80 118 135 152 151 175 178 162 143 124 182 121 139 184 168 166 191 187 164 218 253 138 115 117 123 150 150 119 110 129 141 143 144 137 129 132 131 135
154 152 309 2 346 340 339 352 16 19 35 74 101 132 140 104 77 102 125 130 154 185 177 156 113 109 118 110 111 192 150 152 213 138 161 231 234 129 123 126 125 131 129 110 124 125 126 129 133 128 130 132 128 120
139 75 9 15 345 352 331 355 94 132 108 21 50 58 100 296 71 142 157 136 137 164 165 147 118 117 119 146 87 122 149 184 107 101 217 221 151 136 134 122 101 103 109 111 107 106 110 113 117 127 120 117 122 116
176 260 15 355 353 344 345 36 89 148 75 74 71 22 88 352 80 155 131 145 143 128 125 110 96 108 160 90 154 122 230 95 101 209 231 191 164 142 138 133 125 124 119 117 118 117 114 115 109 107 119 132 131 133
190 350 338 356 340 347 9 43 47 64 74 68 43 40 15 322 56 167 131 104 111 119 113 94 62 79 45 97 48 110 80 218 203 225 223 158 143 141 137 129 126 123 123 121 126 123 121 124 123 114 116 123 122 127
141 309 349 342 355 5 25 41 33 61 55 56 43 28 359 65 68 66 112 110 37 101 81 78 112 87 157 141 145 210 154 211 260 281 185 132 139 138 128 123 119 122 124 121 116 123 123 128 135 130 107 113 125 136
33 329 323 328 327 14 39 70 48 50 47 33 22 359 33 50 42 40 37 354 17 65 106 112 82 164 100 99 129 352 240 325 359 55 80 134 134 124 115 111 114 118 116 118 116 112 102 112 123 121 128 137 129 130
43 307 317 323 11 52 33 44 78 65 59 22 44 351 24 24 6 23 5 337 21 64 62 67 91 54 49 66 285 39 83 51 37 63 74 96 105 111 122 124 119 120 117 113 116 120 128 136 133 133 130 138 119 121
261 338 6 19 90 88 66 30 36 79 44 6 337 334 30 93 92 307 303 334 70 92 83 47 59 36 28 7 3 47 114 128 129 76 73 76 105 115 112 105 106 112 118 126 134 136 137 135 133 140 144 154 153 161
357 13 6 23 51 70 65 27 49 77 54 313 24 7 67 62 311 345 22 19 36 55 44 42 25 356 334 330 347 80 98 116 118 105 82 61 70 104 111 127 127 124 113 107 99 112 119 105 118 140 155 154 152 169
22 349 358 29 43 59 79 46 50 69 90 71 312 42 13 9 21 11 20 348 55 37 68 36 346 4 18 27 39 79 88 97 98 116 132 109 69 93 89 98 114 121 131 136 140 137 141 156 152 148 148 155 146 146
326 350 49 17 77 67 76 18 101 103 69 265 34 45 39 26 351 10 338 44 57 26 31 11 359 360 18 24 30 38 81 88 82 83 78 115 128 125 126 140 134 136 143 154 156 165 162 152 150 149 144 161 142 141
353 37 41 33 66 48 327 15 64 24 62 337 23 34 14 8 292 338 73 62 81 16 24 27 351 352 19 24 63 61 57 85 92 93 99 89 94 108 123 138 139 146 145 178 145 155 163 152 148 145 136 131 134 123
23 51 45 46 54 101 6 29 58 66 39 46 53 26 357 326 325 63 77 70 41 357 26 21 6 6 19 38 44 44 49 91 97 89 104 116 116 111 150 161 159 161 160 147 160 151 149 154 144 147 151 141 156 162
63 347 64 358 352 62 48 25 7 60 83 72 79 358 310 20 62 61 79 60 12 21 357 354 30 36 44 1 12 46 38 121 130 137 169 138 105 103 97 97 145 167 148 141 151 158 164 150 154 155 161 156 175 180
69 321 72 20 315 94 185 87 145 151 107 55 18 269 42 70 61 63 57 319 331 359 7 359 350 359 22 15 353 18 349 144 119 112 170 172 175 158 162 164 166 240 200 173 154 163 165 169 169 169 176 183 175 170
54 345 357 37 315 90 48 36 69 90 91 136 216 61 69 75 165 287 20 23 340 342 315 353 13 30 25 0 348 350 353 41 94 189 221 161 160 168 160 169 195 219 168 170 166 164 171 173 176 181 180 144 181 184
43 34 77 316 46 15 108 56 65 74 192 279 66 50 114 156 180 309 340 334 319 306 357 27 21 13 14 6 347 347 9 6 40 46 60 57 39 91 141 133 143 153 164 175 171 163 168 173 176 176 177 185 182 176
33 328 80 28 32 35 43 115 173 77 9 76 108 106 106 66 319 320 318 338 342 26 41 18 4 349 4 359 14 13 17 23 56 43 21 310 336 293 194 141 129 114 119 138 167 166 170 167 170 177 180 177 159 149
327 10 84 54 76 22 267 228 72 70 38 86 106 100 78 55 358 346 9 12 21 25 355 335 329 26 25 20 345 354 8 22 33 79 19 307 265 300 205 155 151 143 135 135 131 124 124 116 112 103 121 123 130 136
326 51 68 67 129 247 227 173 126 87 67 57 36 92 127 146 -0 5 25 1 351 356 26 14 359 13 20 12 7 354 343 348 353 346 337 301 316 349 45 99 120 137 143 145 143 142 140 138 136 139 143 141 145 143
7 56 119 101 290 293 38 75 81 79 86 77 69 79 60 66 53 346 350 355 13 18 357 344 349 342 341 318 307 294 298 302 318 322 337 335 1 64 72 52 59 81 110 127 131 142 147 142 143 147 143 139 140 134
4 50 55 77 68 117 301 86 62 73 47 77 84 105 77 91 101 295 317 54 160 311 317 307 295 293 303 324 326 327 331 317 338 9 23 39 58 69 64 59 67 77 86 84 84 103 113 118 118 117 117 117 115 113